COSMOS 1275 DEB, 12695

Orbit data source: Space-Track

COSMOS 1275 DEB, 12695 is space debris in LEO originally from a launch on Thu, 04 Jun 1981 UTC launched from the Plesetsk Missile And Space Complex (PKMTR). Debris objects in space refer to the collection of defunct objects orbiting the Earth. Examples of debris include non-operational satellites, rocket bodies, and fragments generated from explosions, collisions, or faulty payload assembly.

Loading next visibility...
Identifier
12695, 1981-053AP
Orbit
LEO
Last TLE update
15 hours ago
Origin
Manufacturer
Unknown
Mission
Spacecraft
Bus & Motor
Unknown
Mass
Unknown
Launch date (UTC)
1981-06-04 (44 years ago)
Launch vehicle
Unknown
Launch site
Plesetsk Missile And Space Complex (PKMTR)
Object type
Payload
Rocket body
Debris
Shape & HBR
Unknown
Radar Cross Section
Small (<0.1 m²)

Expand to show TLE details & history

TLE from 15 hours ago
0 COSMOS 1275 DEB
1 12695U 81053AP  25191.41659557  .00000849  00000-0  85927-3 0  9995
2 12695  83.0106 152.2548 0102689 267.6416 221.9558 13.73868017182139
Epoch: 2025-07-10T09:59Z
TLE epoch observation values (Epoch: 2025-07-10T09:59:53.857Z)
Latitude
50.75156°
Longitude
-114.88843°
Altitude
1,050.429 km
Speed
7.303 km/s
True Right ascension
21h 34m 40s
True Declination
50° 35' 23"
Sunlit
Object was in daylight at epoch
Visualization orbit readout
Latitude
-64.55497°
Longitude
58.39447°
Altitude
943.887 km
Speed
7.412 km/s
Apparent Right ascension
03h 41m 19s
Apparent Declination
-68° 19' 33"
Sunlit
Object is in daylight
Visualization observer readout
Local Sidereal Time
13:03:06
Azimuth
203.929° SW
Elevation
-54.557°
Doppler factor
1
Orbital elements
Apogee altitude
1,058.454 km
Perigee altitude
907.275 km
Semi-major axis
7,361.001 km
Eccentricity
0.01027
Inclination
83.0106°
RAAN
152.2548°
Arg. of periapsis
267.6416°
True anomaly
Unknown
Mean anomaly
221.9558°
Eccentric anomaly
Unknown
Mean motion
3.43667 °/min
Orbital period
104.75 mins
BSTAR
0.00085927
Loading maneuver chart data...
Loading SW <> Apogee altitude chart data...
Loading historical data...
Loading historical data...
Loading historical data...
Loading historical data...
Loading historical data...
Loading historical data...
Loading historical data...

COSMOS 1275 DEB Visibility forecast

Observer location: undefined°, undefined°

Span
Click to sort rows by Start time (UTC) header in descending order
Start Az.
Max El. time (UTC)
Max El. Az.
Max El.
End time (UTC)
End Az.
11 mins2025-07-11 08:40:48.962Z8.502° NNE2025-07-11 08:45:48.962Z69.657° E35.505°2025-07-11 08:51:48.962Z148.365° SSE
8 mins2025-07-11 10:27:48.962Z318.399° NNW2025-07-11 10:31:48.962Z268.243° W24.464°2025-07-11 10:35:48.962Z224.78° SW
5 mins2025-07-11 20:29:48.962Z95.165° ESE2025-07-11 20:31:48.962Z74.526° E14.729°2025-07-11 20:34:48.962Z47.02° ENE
11 mins2025-07-11 22:10:48.962Z191.04° SSW2025-07-11 22:15:48.962Z252.506° W44.432°2025-07-11 22:21:48.962Z4.029° NNE
|